Estación de Petorca
Ultimos registro cada 15 minutos 81
| N° | Estación | Fecha / Hora | Temperatura | Humedad | Lluvia | Velocidad | Dirección | Radiación | Presion |
| 81 | Petorca | 08-05-2026 20:00 | 11,9 | 68,5 | 0 | 0 | 316 | 0,6 | 986 |
| 80 | Petorca | 08-05-2026 19:45 | 12,5 | 66,5 | 0 | 0 | 305 | 0,6 | 985,7 |
| 79 | Petorca | 08-05-2026 19:30 | 13,4 | 63,8 | 0 | 0 | 223 | 0,6 | 985,5 |
| 78 | Petorca | 08-05-2026 19:15 | 14,8 | 58,4 | 0 | 1 | 232 | 0,6 | 985,6 |
| 77 | Petorca | 08-05-2026 19:00 | 15,3 | 56,8 | 0 | 1 | 243 | 0,6 | 985,5 |
| 76 | Petorca | 08-05-2026 18:45 | 14,9 | 60,7 | 0 | 0 | 261 | 0,6 | 985 |
| 75 | Petorca | 08-05-2026 18:30 | 14,1 | 63,1 | 0 | 0 | 309 | 0,6 | 984,8 |
| 74 | Petorca | 08-05-2026 18:15 | 16,7 | 53,2 | 0 | 0,5 | 253 | 0,6 | 984,5 |
| 73 | Petorca | 08-05-2026 18:00 | 17,4 | 50,2 | 0 | 0,5 | 254 | 3,1 | 984,7 |
| 72 | Petorca | 08-05-2026 17:45 | 17,5 | 50,6 | 0 | 0 | 270 | 8,1 | 984,4 |
| 71 | Petorca | 08-05-2026 17:30 | 18,1 | 49,9 | 0 | 0 | 258 | 14,4 | 984,5 |
| 70 | Petorca | 08-05-2026 17:15 | 18,3 | 49,6 | 0 | 0,5 | 263 | 19,4 | 984,4 |
| 69 | Petorca | 08-05-2026 17:00 | 18,6 | 48,7 | 0 | 0,5 | 263 | 23,1 | 984,7 |
| 68 | Petorca | 08-05-2026 16:45 | 19,2 | 47,2 | 0 | 0,5 | 260 | 28,1 | 984,6 |
| 67 | Petorca | 08-05-2026 16:30 | 21,6 | 42,5 | 0 | 1 | 244 | 253,1 | 984,8 |
| 66 | Petorca | 08-05-2026 16:15 | 21,7 | 42 | 0 | 1 | 247 | 301,9 | 984,6 |
| 65 | Petorca | 08-05-2026 16:00 | 22,5 | 41,7 | 0 | 1 | 246 | 353,1 | 984,5 |
| 64 | Petorca | 08-05-2026 15:45 | 21,7 | 42,5 | 0 | 1,5 | 236 | 396,9 | 984,5 |
| 63 | Petorca | 08-05-2026 15:30 | 22 | 42,3 | 0 | 2 | 236 | 433,1 | 984,5 |
| 62 | Petorca | 08-05-2026 15:15 | 22,9 | 40,5 | 0 | 1,5 | 241 | 471,9 | 984,5 |
| 61 | Petorca | 08-05-2026 15:00 | 22,6 | 40,6 | 0 | 1,5 | 240 | 508,1 | 984,6 |
| 60 | Petorca | 08-05-2026 14:45 | 23 | 39,1 | 0 | 1 | 240 | 539,4 | 984,8 |
| 59 | Petorca | 08-05-2026 14:30 | 23 | 38,7 | 0 | 1,5 | 241 | 569,4 | 984,8 |
| 58 | Petorca | 08-05-2026 14:15 | 21,9 | 39,8 | 0 | 2 | 233 | 600,6 | 984,9 |
| 57 | Petorca | 08-05-2026 14:00 | 22,4 | 38,1 | 0 | 1,5 | 236 | 621,9 | 985,1 |
| 56 | Petorca | 08-05-2026 13:45 | 22,2 | 40,8 | 0 | 2 | 233 | 641,9 | 985,1 |
| 55 | Petorca | 08-05-2026 13:30 | 21,8 | 41,7 | 0 | 2,5 | 222 | 655,6 | 985 |
| 54 | Petorca | 08-05-2026 13:15 | 21 | 44,8 | 0 | 2,5 | 222 | 666,9 | 985,4 |
| 53 | Petorca | 08-05-2026 13:00 | 21,2 | 42,3 | 0 | 2,5 | 225 | 673,1 | 985,8 |
| 52 | Petorca | 08-05-2026 12:45 | 20,6 | 43,7 | 0 | 2 | 232 | 671,9 | 985,9 |
| 51 | Petorca | 08-05-2026 12:30 | 20,2 | 44,4 | 0 | 2 | 226 | 673,1 | 986,1 |
| 50 | Petorca | 08-05-2026 12:15 | 19,9 | 45,8 | 0 | 1,5 | 226 | 669,4 | 986,5 |
| 49 | Petorca | 08-05-2026 12:00 | 19,6 | 48,8 | 0 | 1 | 227 | 663,1 | 986,5 |
| 48 | Petorca | 08-05-2026 11:45 | 18,6 | 48,6 | 0 | 1,5 | 222 | 649,4 | 986,9 |
| 47 | Petorca | 08-05-2026 11:30 | 18,2 | 53,9 | 0 | 1 | 206 | 634,4 | 987 |
| 46 | Petorca | 08-05-2026 11:15 | 18,8 | 49,2 | 0 | 0 | 178 | 611,9 | 987,1 |
| 45 | Petorca | 08-05-2026 11:00 | 17,5 | 51,1 | 0 | 0 | 271 | 588,1 | 987,2 |
| 44 | Petorca | 08-05-2026 10:45 | 17,5 | 50,8 | 0 | 0 | 149 | 559,4 | 987,4 |
| 43 | Petorca | 08-05-2026 10:30 | 15,7 | 57,3 | 0 | 0 | 219 | 525,6 | 987,2 |
| 42 | Petorca | 08-05-2026 10:15 | 15,3 | 61,3 | 0 | 0 | 213 | 493,1 | 987,3 |
| 41 | Petorca | 08-05-2026 10:00 | 13,4 | 67,9 | 0 | 0,5 | 194 | 454,4 | 987 |
| 40 | Petorca | 08-05-2026 09:45 | 13,5 | 69,2 | 0 | 0 | 146 | 416,9 | 987,4 |
| 39 | Petorca | 08-05-2026 09:30 | 13,2 | 70,7 | 0 | 0 | 80 | 374,4 | 987,3 |
| 38 | Petorca | 08-05-2026 09:15 | 12,9 | 74,3 | 0 | 0 | 51 | 328,1 | 987,6 |
| 37 | Petorca | 08-05-2026 09:00 | 10,5 | 84,3 | 0 | 0 | 338 | 284,4 | 988 |
| 36 | Petorca | 08-05-2026 08:45 | 8,6 | 91,8 | 0 | 0 | 254 | 239,4 | 987,8 |
| 35 | Petorca | 08-05-2026 08:30 | 6,7 | 96,1 | 0 | 0 | 70 | 198,1 | 987,8 |
| 34 | Petorca | 08-05-2026 08:15 | 5,2 | 96,5 | 0 | 0 | 13 | 19,4 | 988,1 |
| 33 | Petorca | 08-05-2026 08:00 | 5,1 | 96,4 | 0 | 0 | 31 | 16,9 | 988,3 |
| 32 | Petorca | 08-05-2026 07:45 | 4,4 | 96,4 | 0 | 0 | 27 | 11,9 | 988,3 |
| 31 | Petorca | 08-05-2026 07:30 | 4,6 | 96,4 | 0 | 0 | 13 | 4,4 | 988,1 |
| 30 | Petorca | 08-05-2026 07:15 | 4,4 | 96,1 | 0 | 0 | 88 | 0,6 | 988,1 |
| 29 | Petorca | 08-05-2026 07:00 | 4,6 | 96,2 | 0 | 0 | 11 | 0,6 | 987,8 |
| 28 | Petorca | 08-05-2026 06:45 | 4,9 | 95,8 | 0 | 0 | 11 | 0,6 | 987,9 |
| 27 | Petorca | 08-05-2026 06:30 | 5,3 | 96,3 | 0 | 0 | 21 | 0,6 | 987,9 |
| 26 | Petorca | 08-05-2026 06:15 | 5,1 | 96,4 | 0 | 0 | 27 | 0,6 | 987,8 |
| 25 | Petorca | 08-05-2026 06:00 | 4,6 | 96,2 | 0 | 0 | 21 | 0,6 | 987,6 |
| 24 | Petorca | 08-05-2026 05:45 | 4,7 | 96,2 | 0 | 0 | 345 | 0,6 | 987,4 |
| 23 | Petorca | 08-05-2026 05:30 | 5,1 | 95,9 | 0 | 0 | 288 | 0,6 | 987,4 |
| 22 | Petorca | 08-05-2026 05:15 | 5,7 | 96 | 0 | 0 | 35 | 0,6 | 987 |
| 21 | Petorca | 08-05-2026 05:00 | 5,4 | 96,1 | 0 | 0 | 20 | 0,6 | 987 |
| 20 | Petorca | 08-05-2026 04:45 | 5,6 | 96,1 | 0 | 0 | 28 | 0,6 | 987,4 |
| 19 | Petorca | 08-05-2026 04:30 | 5,3 | 95,8 | 0 | 0 | 11 | 0,6 | 987,4 |
| 18 | Petorca | 08-05-2026 04:15 | 6 | 95,8 | 0 | 0 | 4 | 0,6 | 987,5 |
| 17 | Petorca | 08-05-2026 04:00 | 6,1 | 95,6 | 0 | 0 | 11 | 0,6 | 987,4 |
| 16 | Petorca | 08-05-2026 03:45 | 6,4 | 95,7 | 0 | 0 | 25 | 0,6 | 987,4 |
| 15 | Petorca | 08-05-2026 03:30 | 6,2 | 95,6 | 0 | 0 | 22 | 0,6 | 987,9 |
| 14 | Petorca | 08-05-2026 03:15 | 6,3 | 95,4 | 0 | 0 | 28 | 0,6 | 987,9 |
| 13 | Petorca | 08-05-2026 03:00 | 6,3 | 95,3 | 0 | 0 | 27 | 0,6 | 987,9 |
| 12 | Petorca | 08-05-2026 02:45 | 6,6 | 94,8 | 0 | 0 | 28 | 0,6 | 988 |
| 11 | Petorca | 08-05-2026 02:30 | 7 | 94,7 | 0 | 0 | 312 | 0,6 | 988,2 |
| 10 | Petorca | 08-05-2026 02:15 | 7,6 | 94,2 | 0 | 0 | 31 | 0,6 | 988,4 |
| 9 | Petorca | 08-05-2026 02:00 | 7,7 | 94 | 0 | 0 | 32 | 0,6 | 988,2 |
| 8 | Petorca | 08-05-2026 01:45 | 8,3 | 94,1 | 0 | 0 | 41 | 0,6 | 988,5 |
| 7 | Petorca | 08-05-2026 01:30 | 8,2 | 93,9 | 0 | 0 | 0 | 0,6 | 988,6 |
| 6 | Petorca | 08-05-2026 01:15 | 8,2 | 94,3 | 0 | 0 | 338 | 0,6 | 988,7 |
| 5 | Petorca | 08-05-2026 01:00 | 8,3 | 94,1 | 0 | 0 | 35 | 0,6 | 988,7 |
| 4 | Petorca | 08-05-2026 00:45 | 8,2 | 93,1 | 0 | 0 | 24 | 0,6 | 989 |
| 3 | Petorca | 08-05-2026 00:30 | 8,7 | 92,2 | 0 | 0 | 3 | 0,6 | 989,4 |
| 2 | Petorca | 08-05-2026 00:15 | 9,4 | 91,7 | 0 | 0 | 11 | 0,6 | 989,4 |
| 1 | Petorca | 08-05-2026 00:00 | 10 | 89,5 | 0 | 0 | 111 | 0,6 | 989,7 |